-> Other stations

1455

Speed(max): 5.9(8.1)knots
Direction:30° ( NNE)
Temperature: 31.0°C
Arrived: 2026-09-03 13:05:20 CEST

Past data:
hh:mmknots
Dir (°)
°C
13:03 6.5 8.6 N(352) 30.8
13:01 6.5 8.6 N(8) 31.0
12:59 6.5 8.6 NNE(19) 31.0
12:57 7 9.2 NNE(26) 30.8
12:55 7 10.3 NNE(23) 30.8
12:53 7.6 9.2 NNE(16) 30.6
12:51 7 9.2 NNE(18) 30.7
12:49 8.1 10.3 NNE(26) 30.6
12:47 7.6 10.3 NNE(23) 30.7
12:45 7.6 10.3 NNE(27) 30.6
12:43 7.6 9.2 NNE(16) 30.6
12:41 7.6 10.3 N(9) 30.6
12:39 7.6 10.8 NNE(18) 30.6
12:37 7.6 9.2 NNE(20) 30.6
15 min. averages:
hh:mmknots
Dir (°)
°C
13:00 7.6 10.3 NNE(22) 30.7
12:45 7.6 10.8 NNE(20) 30.6
12:30 7 11.3 NNE(17) 30.6
12:15 8.1 10.8 NNE(23) 31.2
12:00 8.6 11.9 NNE(22) 31.7
11:45 9.2 11.9 NNE(26) 31.6
11:30 8.6 11.3 NNE(30) 31.7
11:15 8.6 11.3 NNE(29) 31.8
11:00 9.7 12.4 NNE(24) 32.0
10:45 9.2 11.9 NNE(21) 31.9
10:30 8.6 11.9 NNE(23) 31.9
10:15 9.2 12.4 NNE(22) 31.7
10:00 10.3 12.4 NNE(22) 31.1
09:45 9.7 13.5 NNE(20) 31.2
09:30 9.2 12.4 NNE(14) 31.2
Stations at HR:
1455
-> Other regions

Desktop view
Data provided by Holfuy.
© Holfuy Weather 2026